[Iaude] MPEC C21: 2024 BG5 [a=1.20,e=0.29,i=19.4,H=21.4]
    mpec at marsden.cfa.harvard.edu 
    mpec at marsden.cfa.harvard.edu
       
    Thu Feb  1 18:47:48 EST 2024
    
    
  
M.P.E.C. 2024-C21                              Issued 2024 February 1, 23:46 UT
     The Minor Planet Electronic Circulars contain information on unusual
         minor planets, routine data on comets and natural satellites,
         and occasional editorial announcements.  They are published
    on behalf of Division F of the International Astronomical Union by the
          Minor Planet Center, Smithsonian Astrophysical Observatory,
                          Cambridge, MA 02138, U.S.A.
			  
             Prepared using the Tamkin Foundation Computer Network
                              MPC at CFA.HARVARD.EDU
            URL https://www.minorplanetcenter.net/    ISSN 1523-6714
                                    2024 BG5                                    
Observations:
     K24B05G* C2024 01 20.50334609 25 22.228+02 03 11.49         21.26wXEC021F52
     K24B05G  C2024 01 20.51589209 25 21.136+02 03 32.28         21.23wXEC021F52
     K24B05G  C2024 01 20.52845009 25 20.044+02 03 53.02         21.33wXEC021F52
     K24B05G  C2024 01 20.54092209 25 18.961+02 04 13.72         21.28wXEC021F52
     K24B05G  C2024 01 20.62382509 25 11.805+02 06 31.85         21.23GVEC021F52
     K24B05G  C2024 01 20.62446809 25 11.753+02 06 32.90         21.29GVEC021F52
     K24B05G  C2024 02 01.34745909 04 55.227+08 57 11.73         20.96wXEC021F52
     K24B05G  C2024 02 01.35911509 04 53.692+08 57 41.20         21.27wXEC021F52
     K24B05G  C2024 02 01.37080609 04 52.125+08 58 10.61         20.84wXEC021F52
     K24B05G  C2024 02 01.38254309 04 50.569+08 58 40.26         20.95wXEC021F52
     K24B05G KC2024 02 01.95103609 03 38.09 +09 22 33.2          20.4 GVEC021104
     K24B05G KC2024 02 01.96205509 03 36.61 +09 23 01.4          20.8 GVEC021104
     K24B05G KC2024 02 01.97307409 03 35.15 +09 23 29.2          20.6 GVEC021104
Observer details:
104 San Marcello Pistoiese.  Observers P. Bacci, M. Maestripieri.  Measurers
    P. Bacci, L. Tesi, G. Fagioli.  0.60-m F4 Reflector + CCD.
F52 Pan-STARRS 2, Haleakala.  Observers J. Herman, T. Lowe, P. Minguez, A.
    Schultz, I. Smith.  Measurers K. Chambers, T. de Boer, J. Fairlamb, H.
    Gao, M. Huber, C.-C. Lin, E. Magnier, Y. Ramanjooloo, R. Wainscoat, R.
    Weryk.  1.8-m Ritchey-Chretien + CCD.
Orbital elements:
2024 BG5                                                 Earth MOID = 0.0840 AU
Epoch 2023 Sept. 13.0 TT = JDT 2460200.5                MPC                     
M 140.46516              (2000.0)            P               Q                  
n   0.75208764     Peri.  132.41755     +0.05681380     +0.97448798             
a   1.1975411      Node   139.26511     -0.98555283     +0.08949754             
e   0.2910706      Incl.   19.43489     -0.15955501     -0.20582363             
P   1.31           H   21.43          G   0.15           U   9                  
Residuals in seconds of arc
240120 F52  0.1-  0.1+    240120 F52  0.0   0.0     240201 104  0.1-  0.1+
240120 F52  0.1-  0.0     240201 F52  0.0   0.0     240201 104  0.1-  0.1+
240120 F52  0.1-  0.1-    240201 F52  0.1+  0.1+    240201 104  0.2+  0.2-
240120 F52  0.0   0.1-    240201 F52  0.1-  0.0
240120 F52  0.0   0.0     240201 F52  0.1+  0.0
Ephemeris:
2024 BG5                 a,e,i = 1.20, 0.29, 19                  q = 0.8490
Date    TT    R. A. (2000) Decl.     Delta      r    Elong.  Phase     V
2024 01 02    09 38 50.0 -03 20 41   0.6445  1.4848   130.5    30.3    22.6
...
2024 01 17    09 29 37.7 +00 33 45   0.5160  1.4495   148.7    20.7    21.8
...
2024 01 25    09 18 41.2 +04 20 15   0.4616  1.4275   160.3    13.4    21.3
...
2024 01 31    09 07 41.0 +08 01 46   0.4295  1.4096   169.5     7.3    20.9
2024 02 01    09 05 38.1 +08 42 45   0.4249  1.4065   170.9     6.3    20.8
2024 02 02    09 03 31.7 +09 24 48   0.4207  1.4033   172.2     5.5    20.7
...
2024 02 08    08 49 52.8 +13 56 08   0.4004  1.3838   171.8     5.8    20.6
...
2024 02 16    08 30 07.9 +20 25 51   0.3881  1.3560   158.3    15.6    20.9
...
2024 03 02    07 56 34.1 +31 38 33   0.4042  1.2987   132.5    34.3    21.5
A. U. Tomatic                (C) Copyright 2024 MPC           M.P.E.C. 2024-C21
    
    
More information about the Iaude
mailing list